Location: Perryvale
(54.4667°N, 113.3833°W)
Time: 21:09:37
(UTC+00:00)

Transit 2A - Pass Details

Date: 21 May 2024
Orbit: 592 x 959 km, 66.7° (Epoch: 19 June)

Event Time Altitude Azimuth Distance (km) Brightness Sun altitude
Exits shadow 05:26:03 12° 128° (SE) 1,958 7.6 -10.7°
Maximum altitude 05:27:45 14° 105° (ESE) 1,864 7.6 -10.8°
Drops below altitude 10° 05:30:24 10° 72° (ENE) 2,217 8.3 -11.0°
Sets 05:33:54 0° 50° (NE) 3,233 9.4 -11.2°
